[[{"header":{"parameterUnit":"m.s-1","parameterCategory":1,"la1":30.2991,"la2":30.254,"lo1":-89.0895,"lo2":-89.0444,"dy":0.0017,"dx":0.0017,"nx":28,"ny":28,"refTime":"2025-12-11T09:00:00:Z","depth":0,"parameterNumber":2,"parameterNumberName":"U-component_of_WINDS"},"data":[0,0,0,0,0,0,0,0,0,0,0,0,0,0,0,0,0,0,0,0,0,0,0,0,0,0,0,0,0,0,0,0,0,0,0,0,0,0,0,0,0,0,0,0,0,0,0,0,0,0,0,0,0,0,0,0,0,0,-1.6949,-1.6948,0,-1.6902,-1.6901,-1.6901,-1.6821,-1.6819,-1.6818,-1.6817,-1.6771,-1.6771,-1.6771,0,0,0,0,0,0,0,0,0,0,0,0,0,-1.6973,-1.6973,-1.6949,-1.6948,-1.6948,-1.6902,-1.6901,-1.69,-1.6821,-1.6819,-1.6818,-1.6816,-1.6771,-1.6771,-1.6771,0,0,0,0,0,0,0,0,0,0,0,0,0,-1.6948,-1.6973,-1.6949,-1.6903,-1.6898,-1.6902,-1.6901,-1.69,-1.6822,-1.6819,-1.6817,-1.6815,-1.6771,-1.6771,-1.6771,-1.6818,0,0,-1.6772,-1.6772,0,0,0,0,0,0,0,0,-1.695,-1.6947,-1.691,-1.6906,-1.6901,-1.6865,-1.6893,-1.6873,-1.6822,-1.6851,-1.6817,-1.6814,-1.6804,-1.6802,-1.6798,-1.6816,-1.6814,-1.6772,-1.6772,-1.6773,-1.6773,0,0,0,0,0,0,0,-1.6951,-1.6949,-1.693,-1.691,-1.6904,-1.6885,-1.6879,-1.6889,-1.6841,-1.6848,-1.6842,-1.6837,-1.6801,-1.6798,-1.6796,-1.6813,-1.6772,-1.6772,-1.6773,-1.6773,-1.6868,-1.687,0,0,0,0,0,0,-1.696,-1.6951,-1.6932,-1.6929,-1.692,-1.6886,-1.688,-1.6879,-1.684,-1.6832,-1.6839,-1.6834,-1.6798,-1.6796,-1.6794,-1.6847,-1.6773,-1.6773,-1.6773,-1.6866,-1.6869,-1.6871,0,0,0,0,0,0,-1.696,-1.6959,-1.6934,-1.6938,-1.6934,-1.6888,-1.6888,-1.6879,-1.6875,-1.6834,-1.6825,-1.6845,-1.6796,-1.6794,-1.6813,-1.6845,-1.6773,-1.6773,-1.6863,-1.6867,-1.687,-1.6953,0,0,0,0,0,0,-1.6961,-1.6959,-1.6976,-1.6939,-1.6934,-1.6952,-1.689,-1.688,-1.6876,-1.6868,-1.6836,-1.6829,-1.6795,-1.6813,-1.6813,-1.6844,-1.6773,-1.686,-1.6865,-1.6869,-1.6948,-1.6959,-1.6969,0,0,0,0,0,-1.6963,-1.7001,-1.6977,-1.6975,-1.6953,-1.6954,-1.6951,-1.691,-1.6878,-1.6895,-1.6869,-1.683,-1.6841,-1.6815,-1.6815,-1.6846,-1.6858,-1.6863,-1.6869,-1.6943,-1.6957,-1.6969,0,0,0,0,0,0,-1.7044,-1.6996,-1.6968,-1.6996,-1.698,-1.6941,-1.6961,-1.6926,-1.6919,-1.6913,-1.6863,-1.6856,-1.6882,-1.6866,-1.6838,-1.689,-1.6843,-1.6849,-1.69,-1.6913,-1.6924,-1.6928,-1.6774,0,0,0,0,0,-1.7065,-1.7069,-1.7027,-1.7056,-1.7049,-1.7007,-1.7005,-1.6975,-1.6957,-1.695,-1.6924,-1.6909,-1.6908,-1.691,-1.6907,-1.6944,-1.6937,-1.6966,-1.6977,-1.6986,-1.6992,-1.7012,-1.7025,-1.6889,-1.6889,-1.6889,0,0,-1.7109,-1.7083,-1.7089,-1.7072,-1.7055,-1.7062,-1.7001,-1.701,-1.7015,-1.6951,-1.6968,-1.6949,-1.6928,-1.6957,-1.6968,-1.6944,-1.7027,-1.6993,-1.7,-1.7001,-1.7019,-1.7032,-1.7043,-1.6892,-1.6892,-1.6891,0,0,-1.7193,-1.7173,-1.7195,-1.718,-1.7156,-1.7128,-1.7133,-1.7099,-1.7084,-1.71,-1.7052,-1.7057,-1.7058,-1.7045,-1.7039,-1.7119,-1.7084,-1.7119,-1.7177,-1.7197,-1.7208,-1.7217,-1.7248,-1.7259,-1.7125,-1.7125,-1.7125,0,-1.7251,-1.7258,-1.7211,-1.7224,-1.7218,-1.716,-1.7183,-1.7171,-1.7148,-1.7146,-1.7119,-1.7119,-1.71,-1.7126,-1.7146,-1.7142,-1.7148,-1.7123,-1.721,-1.7219,-1.7227,-1.7255,-1.7267,-1.713,-1.7129,-1.7129,-1.7128,0,-1.7331,-1.7337,-1.7358,-1.7337,-1.7333,-1.7351,-1.7309,-1.7311,-1.7281,-1.7256,-1.7274,-1.7249,-1.7242,-1.7245,-1.7216,-1.7268,-1.7253,-1.7219,-1.7171,-1.7245,-1.7271,-1.7282,-1.7136,-1.7135,-1.7133,-1.7132,0,0,-1.7466,-1.7418,-1.7427,-1.7417,-1.7387,-1.7391,-1.7406,-1.7398,-1.7402,-1.7388,-1.7401,-1.7403,-1.7371,-1.7364,-1.7333,-1.7351,-1.7418,-1.7314,-1.7313,-1.7336,-1.7475,-1.7503,-1.7516,-1.7393,-1.7395,-1.7396,-1.7477,0,-1.7544,-1.7568,-1.7527,-1.7561,-1.7566,-1.7511,-1.7525,-1.7508,-1.7485,-1.7487,-1.7462,-1.7465,-1.7421,-1.7417,-1.7432,-1.7406,-1.7445,-1.74,-1.7407,-1.7408,-1.7416,-1.7529,-1.7558,-1.7636,-1.7487,-1.7489,-1.749,0,-1.7639,-1.763,-1.7664,-1.7633,-1.7633,-1.7647,-1.7636,-1.7638,-1.7619,-1.7601,-1.7594,-1.7557,-1.7571,-1.7524,-1.7545,-1.7515,-1.7515,-1.7503,-1.7505,-1.7506,-1.7455,-1.7535,-1.7659,-1.7672,-1.7505,-1.7504,-1.7503,0,-1.7737,-1.7732,-1.7753,-1.7746,-1.7709,-1.772,-1.7705,-1.7683,-1.7681,-1.7672,-1.7671,-1.7664,-1.7661,-1.7657,-1.762,-1.7589,-1.7646,-1.7595,-1.7633,-1.7634,-1.7649,-1.7649,-1.7778,-1.7646,-1.7646,-1.7646,-1.7646,0,-1.783,-1.7854,-1.7796,-1.7809,-1.7834,-1.7787,-1.7814,-1.7793,-1.7775,-1.7783,-1.7734,-1.7744,-1.7694,-1.7698,-1.7669,-1.7692,-1.769,-1.7677,-1.767,-1.7683,-1.7685,-1.7684,-1.7678,-1.7649,-1.7648,-1.7648,-1.7647,0,-1.7944,-1.7906,-1.7925,-1.7888,-1.7879,-1.79,-1.7869,-1.788,-1.7853,-1.7865,-1.7865,-1.7824,-1.7827,-1.7789,-1.7785,-1.7765,-1.7802,-1.7784,-1.7809,-1.7804,-1.7845,-1.7842,-1.7979,-1.7995,-1.7852,-1.7853,-1.7854,0,-1.8007,-1.8024,-1.7989,-1.7991,-1.7979,-1.7982,-1.798,-1.7934,-1.7934,-1.7914,-1.7928,-1.7926,-1.7923,-1.793,-1.7901,-1.7898,-1.7881,-1.7928,-1.788,-1.7893,-1.7884,-1.7884,-1.7887,-1.794,-1.7941,-1.7943,-1.7944,0,-1.8124,-1.8105,-1.8103,-1.8095,-1.8093,-1.8085,-1.8073,-1.8078,-1.8028,-1.8031,-1.8033,-1.803,-1.8026,-1.8026,-1.8017,-1.8002,-1.7966,-1.7959,-1.7968,-1.7983,-1.7998,-1.7992,-1.7839,-1.7957,-1.7956,-1.7955,-1.7954,-1.7953,-1.8216,-1.8229,-1.8207,-1.8207,-1.8193,-1.8184,-1.8192,-1.8167,-1.8167,-1.816,-1.8133,-1.814,-1.8121,-1.8105,-1.8094,-1.81,-1.8077,-1.8089,-1.8093,-1.8097,-1.8106,-1.7995,-1.8098,-1.8098,-1.8097,-1.8097,-1.8097,0,-1.8332,-1.8315,-1.8315,-1.8301,-1.8301,-1.8265,-1.825,-1.8254,-1.826,-1.8245,-1.8243,-1.8246,-1.8246,-1.8216,-1.8213,-1.8223,-1.8207,-1.8224,-1.8224,-1.8222,-1.8126,-1.8119,-1.8238,-1.8238,-1.8238,-1.8238,-1.8238,-1.8238,-1.8393,-1.8414,-1.8392,-1.8406,-1.8388,-1.8394,-1.8389,-1.8381,-1.8369,-1.8374,-1.8374,-1.8354,-1.8334,-1.8328,-1.8327,-1.8319,-1.8321,-1.8345,-1.8331,-1.8242,-1.8228,-1.8215,-1.8209,-1.8345,-1.8345,-1.8427,-1.8427,-1.8428]},{"header":{"parameterUnit":"m.s-1","parameterCategory":1,"la1":30.2991,"la2":30.254,"lo1":-89.0895,"lo2":-89.0444,"dy":0.0017,"dx":0.0017,"nx":28,"ny":28,"refTime":"2025-12-11T09:00:00:Z","depth":0,"parameterNumber":3,"parameterNumberName":"V-component_of_WINDS"},"data":[0,0,0,0,0,0,0,0,0,0,0,0,0,0,0,0,0,0,0,0,0,0,0,0,0,0,0,0,0,0,0,0,0,0,0,0,0,0,0,0,0,0,0,0,0,0,0,0,0,0,0,0,0,0,0,0,0,0,-1.0756,-1.0756,0,-1.0765,-1.0765,-1.0766,-1.0743,-1.0743,-1.0742,-1.0741,-1.075,-1.0751,-1.0752,0,0,0,0,0,0,0,0,0,0,0,0,0,-1.0719,-1.072,-1.0756,-1.0756,-1.0757,-1.0765,-1.0765,-1.0766,-1.0744,-1.0743,-1.0742,-1.0741,-1.075,-1.0751,-1.0752,0,0,0,0,0,0,0,0,0,0,0,0,0,-1.0732,-1.072,-1.0756,-1.0747,-1.0746,-1.0765,-1.0765,-1.0766,-1.0744,-1.0743,-1.0742,-1.0741,-1.0749,-1.0751,-1.0752,-1.0781,0,0,-1.0756,-1.0756,0,0,0,0,0,0,0,0,-1.0732,-1.0734,-1.0748,-1.0747,-1.0747,-1.0752,-1.0755,-1.0771,-1.0744,-1.0745,-1.0741,-1.074,-1.0751,-1.0752,-1.0756,-1.0781,-1.0782,-1.0756,-1.0757,-1.0757,-1.0758,0,0,0,0,0,0,0,-1.0731,-1.0733,-1.076,-1.0748,-1.0747,-1.0741,-1.0742,-1.0758,-1.0754,-1.0744,-1.0743,-1.0744,-1.0751,-1.0755,-1.0756,-1.0782,-1.0756,-1.0757,-1.0758,-1.0758,-1.0831,-1.0832,0,0,0,0,0,0,-1.0731,-1.0733,-1.076,-1.076,-1.0736,-1.0743,-1.0744,-1.0751,-1.0753,-1.0753,-1.0745,-1.0743,-1.0754,-1.0755,-1.0757,-1.0792,-1.0757,-1.0759,-1.0759,-1.083,-1.0831,-1.0833,0,0,0,0,0,0,-1.073,-1.0734,-1.0759,-1.0746,-1.0749,-1.0745,-1.0753,-1.0752,-1.0757,-1.0754,-1.0753,-1.0751,-1.0753,-1.0755,-1.0775,-1.0792,-1.0759,-1.076,-1.0829,-1.083,-1.0832,-1.0861,0,0,0,0,0,0,-1.0729,-1.0734,-1.0745,-1.0746,-1.075,-1.0778,-1.0754,-1.0753,-1.0759,-1.0757,-1.0759,-1.0758,-1.0752,-1.0773,-1.0776,-1.0793,-1.0761,-1.0827,-1.0829,-1.0831,-1.0859,-1.0864,-1.0868,0,0,0,0,0,-1.0728,-1.0752,-1.0746,-1.0749,-1.0764,-1.0779,-1.0781,-1.0773,-1.076,-1.0772,-1.077,-1.0758,-1.0789,-1.0776,-1.0779,-1.0796,-1.0826,-1.0829,-1.0831,-1.0857,-1.0863,-1.0868,0,0,0,0,0,0,-1.0753,-1.0753,-1.0745,-1.077,-1.0775,-1.0775,-1.0789,-1.078,-1.0788,-1.0785,-1.0775,-1.0776,-1.0799,-1.0799,-1.0784,-1.0824,-1.0805,-1.0809,-1.0824,-1.0829,-1.0834,-1.0834,-1.0762,0,0,0,0,0,-1.0761,-1.0774,-1.0773,-1.0795,-1.0798,-1.0793,-1.08,-1.0794,-1.0798,-1.08,-1.0799,-1.0804,-1.0814,-1.0821,-1.0831,-1.0858,-1.0859,-1.0872,-1.0876,-1.088,-1.0883,-1.0899,-1.0905,-1.0841,-1.0841,-1.0841,0,0,-1.0779,-1.078,-1.0789,-1.0801,-1.0803,-1.0817,-1.0795,-1.081,-1.082,-1.0802,-1.0821,-1.0821,-1.0825,-1.0849,-1.086,-1.085,-1.0901,-1.0883,-1.0886,-1.0888,-1.0902,-1.0908,-1.0913,-1.0843,-1.0843,-1.0842,0,0,-1.0818,-1.082,-1.084,-1.0843,-1.0847,-1.0844,-1.0849,-1.085,-1.085,-1.0869,-1.0856,-1.0867,-1.0885,-1.0889,-1.0893,-1.0934,-1.0923,-1.0937,-1.0961,-1.0976,-1.0981,-1.0986,-1.1001,-1.1007,-1.094,-1.094,-1.094,0,-1.084,-1.086,-1.0851,-1.0867,-1.0873,-1.0857,-1.0877,-1.088,-1.0887,-1.0891,-1.088,-1.0903,-1.0905,-1.093,-1.094,-1.0943,-1.0949,-1.0937,-1.0981,-1.0986,-1.099,-1.1005,-1.101,-1.0942,-1.0942,-1.0941,-1.0941,0,-1.0886,-1.09,-1.0915,-1.0924,-1.0931,-1.0948,-1.0942,-1.095,-1.0943,-1.0941,-1.0961,-1.0962,-1.0972,-1.0977,-1.097,-1.1002,-1.0996,-1.0983,-1.0964,-1.0998,-1.1012,-1.1017,-1.0944,-1.0944,-1.0943,-1.0943,0,0,-1.0943,-1.0945,-1.0951,-1.0955,-1.0959,-1.0969,-1.0986,-1.0996,-1.1004,-1.1009,-1.1023,-1.1039,-1.1027,-1.1032,-1.1025,-1.1038,-1.1072,-1.1024,-1.1024,-1.1034,-1.1107,-1.1118,-1.1125,-1.1064,-1.1065,-1.1066,-1.1107,0,-1.0983,-1.1013,-1.1005,-1.1035,-1.1048,-1.1032,-1.1047,-1.1051,-1.1049,-1.1059,-1.1057,-1.1069,-1.1052,-1.1055,-1.1067,-1.1065,-1.1086,-1.1062,-1.1078,-1.1079,-1.1079,-1.1132,-1.1143,-1.1182,-1.1113,-1.1113,-1.1114,0,-1.1034,-1.1042,-1.1073,-1.1075,-1.108,-1.1093,-1.1102,-1.1112,-1.1116,-1.1113,-1.1119,-1.1109,-1.1126,-1.1106,-1.1129,-1.1112,-1.1118,-1.1118,-1.1119,-1.1122,-1.11,-1.1137,-1.1194,-1.1201,-1.1122,-1.1122,-1.1121,0,-1.1074,-1.1092,-1.1113,-1.1116,-1.1119,-1.1129,-1.113,-1.1133,-1.1139,-1.1146,-1.1151,-1.1159,-1.1165,-1.1171,-1.1165,-1.115,-1.1189,-1.1168,-1.1188,-1.1189,-1.1199,-1.1198,-1.1259,-1.12,-1.12,-1.1199,-1.1199,0,-1.112,-1.114,-1.1131,-1.1144,-1.1166,-1.1157,-1.1179,-1.1178,-1.118,-1.1193,-1.1179,-1.1192,-1.1181,-1.1192,-1.1187,-1.1207,-1.1209,-1.1208,-1.1207,-1.121,-1.1211,-1.1215,-1.1213,-1.1201,-1.1201,-1.12,-1.12,0,-1.1169,-1.1164,-1.1186,-1.1186,-1.1187,-1.1203,-1.1203,-1.1215,-1.1212,-1.1228,-1.1231,-1.1226,-1.1239,-1.1232,-1.1245,-1.1241,-1.1268,-1.1262,-1.1267,-1.1266,-1.1288,-1.1286,-1.1355,-1.1364,-1.1297,-1.1298,-1.1298,0,-1.12,-1.1215,-1.1217,-1.1225,-1.1227,-1.124,-1.1247,-1.1237,-1.1245,-1.125,-1.1262,-1.1273,-1.1282,-1.1303,-1.13,-1.131,-1.1305,-1.1328,-1.1306,-1.131,-1.1307,-1.1307,-1.1309,-1.1333,-1.1334,-1.1334,-1.1335,0,-1.1256,-1.1252,-1.1263,-1.1273,-1.1281,-1.1288,-1.1294,-1.1301,-1.1292,-1.1301,-1.1314,-1.132,-1.1334,-1.1345,-1.1354,-1.1354,-1.1344,-1.1342,-1.1347,-1.1352,-1.1355,-1.1355,-1.1281,-1.134,-1.134,-1.134,-1.1339,-1.1339,-1.1298,-1.1311,-1.1314,-1.1327,-1.133,-1.1336,-1.1348,-1.1346,-1.1356,-1.1367,-1.136,-1.1376,-1.1379,-1.1389,-1.1391,-1.1403,-1.1394,-1.1401,-1.1403,-1.1406,-1.141,-1.1352,-1.1404,-1.1404,-1.1404,-1.1404,-1.1403,0,-1.1354,-1.1356,-1.1367,-1.1376,-1.1385,-1.1374,-1.1379,-1.1388,-1.1402,-1.1406,-1.1415,-1.143,-1.1441,-1.1439,-1.1449,-1.1459,-1.1454,-1.1462,-1.1462,-1.1463,-1.1416,-1.1412,-1.1466,-1.1466,-1.1466,-1.1466,-1.1466,-1.1466,-1.1385,-1.1407,-1.1404,-1.1427,-1.1428,-1.1444,-1.1448,-1.1453,-1.1456,-1.1474,-1.1483,-1.1482,-1.1483,-1.1493,-1.1503,-1.1502,-1.1507,-1.1517,-1.1515,-1.1472,-1.1466,-1.146,-1.1455,-1.1518,-1.1518,-1.156,-1.1561,-1.1561]}]]